Theta_e
292 293 293 294 293 292 291 292 292 292 293 293 293 293 294 294 294 294 294 294 294 294 293 291 291 291 292 293 294 294 295 295 295 296 296 298 301 303 307 310 316 325 329 332
292 293 293 291 291 291 291 292 293 292 292 293 293 293 293 293 294 294 294 293 293 292 291 291 290 290 290 290 291 292 294 294 294 295 296 297 298 300 305 310 319 324 328 331
293 293 292 290 290 291 292 293 293 293 293 293 292 293 293 293 293 292 292 291 291 291 290 290 290 289 288 289 289 290 292 293 294 294 295 297 299 300 304 314 320 324 328 328
293 291 290 291 292 291 291 291 292 292 293 293 292 294 292 293 292 292 292 291 290 290 289 289 288 288 287 287 288 289 290 292 293 294 294 296 299 302 305 311 319 324 327 327
294 294 291 292 291 290 291 292 292 292 292 292 292 292 292 292 292 293 291 290 289 289 288 287 287 286 286 286 287 288 290 292 292 293 294 295 297 299 304 310 319 322 325 326
292 291 290 291 290 291 292 291 291 288 290 293 291 292 292 293 293 291 290 289 289 288 287 286 286 286 286 286 287 288 290 291 292 293 294 295 297 300 303 310 318 323 324 322
294 292 291 290 292 287 288 291 291 292 293 292 290 291 292 292 291 289 289 289 288 286 286 286 285 285 285 285 286 287 288 290 291 293 295 294 296 298 305 310 318 321 322 320
292 292 290 291 291 291 290 290 291 291 292 292 290 291 293 291 290 289 289 287 287 286 285 285 285 284 284 284 284 286 287 289 290 293 296 296 296 299 308 311 317 320 320 318
292 291 290 289 291 290 289 291 291 292 287 290 290 290 290 291 291 289 289 287 286 284 284 284 283 283 283 283 283 284 286 288 290 291 295 299 298 299 310 313 317 320 318 316
292 291 290 290 288 290 290 290 291 292 291 291 290 291 292 292 289 289 286 286 285 283 282 282 282 282 281 281 282 283 284 285 289 291 294 298 302 302 311 316 317 317 315 314
291 290 290 288 289 290 289 289 290 291 292 293 291 291 292 290 287 287 286 285 283 282 282 281 281 281 280 280 281 281 281 283 287 290 294 299 304 307 314 317 316 315 313 312
289 291 291 290 287 284 286 288 289 292 289 291 290 291 288 287 286 286 285 284 283 282 281 280 280 280 279 279 280 280 280 282 285 290 294 302 308 312 316 315 314 314 312 310
290 290 291 289 288 286 289 288 289 291 289 289 289 290 288 287 290 286 284 282 282 281 280 279 279 279 278 278 279 279 280 281 284 290 296 301 306 313 313 312 313 313 313 312
292 291 290 291 290 290 288 289 287 288 289 289 290 289 290 291 290 285 283 282 281 280 279 278 278 278 277 277 277 278 279 280 282 289 291 293 296 301 303 307 309 311 312 309
291 291 289 288 289 288 287 287 287 287 287 288 288 289 290 290 287 284 282 281 280 279 278 277 277 277 276 276 276 277 278 278 279 286 288 289 292 295 296 301 303 304 306 306
288 289 289 289 287 285 287 287 284 283 284 285 286 287 288 287 283 285 282 280 279 278 277 276 276 276 275 275 276 276 277 278 279 282 285 286 290 291 290 292 294 301 301 302
288 288 288 288 283 284 287 288 284 285 285 288 291 292 286 287 286 285 281 279 278 277 276 275 275 274 274 274 275 275 276 277 278 279 281 284 285 289 290 289 291 292 292 295
288 288 288 288 286 288 289 280 282 286 288 288 288 288 287 284 283 282 280 278 277 276 275 274 274 273 273 273 274 275 275 276 277 278 279 280 282 283 286 287 288 290 290 290
288 288 289 289 288 288 289 287 288 288 289 288 288 287 284 281 281 283 279 276 275 274 274 274 273 272 272 272 274 274 274 275 275 277 277 278 280 281 282 283 284 286 287 288
288 288 290 286 288 288 288 287 282 281 291 287 283 286 285 284 289 285 278 276 275 274 273 273 272 272 271 271 273 273 272 273 273 275 276 277 278 279 280 281 282 283 284 285
286 288 289 287 289 288 287 285 285 290 291 284 283 285 283 287 286 279 274 275 272 272 272 272 272 271 270 270 272 271 271 271 271 274 275 276 277 278 279 280 282 282 283 284
288 289 287 286 287 287 285 288 290 289 285 282 282 283 283 283 278 277 276 275 275 274 273 272 272 271 269 269 271 270 269 269 272 273 274 276 277 277 278 280 280 281 282 282
289 289 290 288 289 288 286 288 286 281 285 286 283 282 282 282 280 278 278 277 277 276 274 272 272 271 269 269 268 269 268 270 272 273 273 274 276 278 278 278 280 281 281 282
288 287 289 288 289 288 288 287 283 282 283 285 284 284 282 282 281 279 278 277 277 276 274 272 272 271 270 268 268 268 269 270 271 271 271 272 274 275 276 278 279 281 282 282
287 287 288 289 289 289 287 286 287 285 282 283 283 283 283 282 280 279 278 277 276 275 273 272 271 271 269 268 268 268 269 270 270 270 270 271 272 273 274 275 277 279 280 281
287 288 289 289 289 287 287 286 285 286 286 285 284 283 282 281 280 278 277 277 276 275 273 272 271 270 269 269 268 268 269 270 270 270 269 269 270 271 272 273 276 276 278 278
Wind_Speed
4 7 17 18 16 20 21 22 24 24 25 22 25 27 32 31 25 27 24 24 17 15 14 16 17 20 22 23 24 25 27 33 30 27 28 28 29 30 31 29 31 35 37 38
6 15 22 13 14 15 19 23 24 24 20 15 23 30 33 29 26 24 19 10 12 14 15 16 19 21 22 26 26 27 27 31 30 29 28 27 28 30 33 29 30 36 37 40
14 19 15 15 17 14 19 22 23 24 21 19 21 29 24 22 16 4 5 4 11 15 18 18 18 23 25 26 27 28 29 29 30 31 30 30 28 32 33 29 31 36 40 38
11 7 10 14 17 13 19 12 11 14 14 14 14 17 23 9 2 10 6 7 13 18 21 20 19 21 26 29 28 30 31 31 31 32 32 32 26 25 32 30 29 32 39 40
16 24 16 18 17 10 11 12 14 18 17 13 17 8 9 7 12 7 6 11 15 18 20 23 22 25 28 29 29 29 31 30 32 33 34 31 28 31 32 30 30 32 39 40
20 19 11 12 11 8 12 11 15 4 2 5 4 8 17 9 2 5 9 14 17 17 18 20 24 28 28 27 28 28 29 31 31 31 35 35 32 30 31 31 28 29 35 37
14 14 5 6 6 2 2 8 6 4 4 6 5 11 17 16 4 3 11 15 16 16 17 17 19 19 25 28 29 28 28 29 30 31 34 34 33 33 36 32 28 32 29 33
6 12 2 4 5 5 6 4 4 8 9 15 14 8 5 1 6 7 13 15 17 18 17 18 19 19 24 27 29 29 28 28 27 29 32 32 34 31 36 32 29 31 37 34
5 7 6 8 9 3 3 4 2 8 4 5 4 8 18 7 5 15 18 17 19 20 20 21 21 19 24 26 28 27 27 27 26 28 30 29 31 33 34 29 30 30 31 35
4 6 9 1 3 6 6 3 5 4 6 13 9 18 10 6 7 17 17 18 17 18 19 19 18 19 26 26 25 24 23 26 24 26 29 28 28 32 34 29 30 23 31 37
5 6 5 2 5 8 4 5 5 5 7 7 12 9 4 7 6 14 15 17 17 17 16 17 17 21 24 25 23 24 23 25 20 21 26 28 29 34 34 31 29 33 31 38
8 4 6 10 1 4 5 4 5 5 9 11 12 16 5 3 6 10 14 16 17 16 15 15 16 15 21 23 25 25 25 22 20 15 18 24 29 34 33 31 32 36 35 33
2 4 5 4 2 2 4 4 5 7 7 14 10 9 4 4 11 10 13 15 16 17 17 16 16 15 16 21 25 26 25 23 20 12 11 15 23 32 31 36 38 35 34 34
17 5 11 12 13 10 13 13 9 6 7 15 16 25 22 19 16 14 14 14 15 14 15 15 16 16 17 23 25 26 26 26 26 20 13 20 20 31 28 31 30 35 32 30
6 7 6 13 20 14 17 17 15 13 14 10 21 17 21 18 9 10 10 13 14 16 17 17 18 17 17 21 29 29 30 34 33 16 24 25 22 38 28 29 27 27 31 31
9 13 11 15 9 8 16 16 13 13 15 14 20 20 8 3 5 7 10 11 13 14 16 17 18 19 18 20 27 31 32 35 31 25 29 25 30 40 30 32 32 33 27 28
10 7 4 16 2 5 9 7 5 3 5 4 4 7 3 5 6 5 9 10 11 13 14 15 16 16 17 25 28 28 30 33 31 30 29 31 30 34 30 31 35 35 29 30
11 9 7 8 1 6 2 1 2 6 4 7 10 9 7 4 5 5 4 6 9 11 13 14 13 16 22 26 28 27 30 34 31 29 33 32 31 31 32 30 33 33 30 29
11 10 3 3 3 7 7 2 2 1 1 2 5 6 2 2 2 1 1 3 5 8 9 10 16 17 20 23 26 25 31 31 31 39 35 26 27 30 29 27 27 27 26 32
3 12 5 2 1 3 2 1 3 1 2 1 2 4 3 2 2 2 1 3 5 7 10 13 11 15 19 23 21 23 26 24 30 31 29 25 29 32 30 27 27 24 27 26
3 1 3 3 4 6 5 3 3 2 4 1 2 3 3 2 1 2 1 2 3 6 10 14 14 13 16 18 18 21 21 23 21 20 20 30 30 29 28 27 30 29 29 29
3 2 1 1 3 3 2 4 2 2 2 2 3 3 4 2 3 3 1 2 2 4 8 12 13 15 16 19 18 18 20 20 19 19 24 30 32 27 24 28 28 25 23 23
3 2 4 5 4 2 4 6 2 2 4 3 3 4 5 5 5 6 3 2 0 3 5 7 9 10 15 17 17 15 18 21 21 25 28 28 29 29 28 24 23 22 21 20
3 2 4 2 3 6 8 6 6 5 6 7 6 6 7 5 7 7 5 4 2 2 4 6 8 10 11 13 17 15 16 19 23 23 21 21 24 21 21 19 19 19 18 17
9 5 5 7 10 8 1 3 6 3 4 8 5 6 8 7 8 8 6 5 3 3 2 5 7 9 11 14 16 16 16 15 16 17 18 19 18 17 13 13 16 16 18 17
6 4 3 5 4 5 9 7 9 6 7 7 6 5 6 9 8 8 7 6 7 5 4 3 4 5 7 10 12 14 15 16 15 14 15 15 12 12 13 13 11 14 13 14
Wind_Direction
199 245 255 260 255 266 277 274 275 278 285 291 281 282 279 282 278 277 270 275 287 284 300 305 305 302 298 293 287 283 281 270 266 264 264 259 259 260 253 249 251 239 228 217
234 255 274 289 266 259 261 267 273 282 286 282 290 288 282 287 279 274 274 261 279 297 304 307 304 301 295 293 291 283 276 272 269 261 260 256 255 259 255 250 245 231 222 211
253 272 301 286 272 259 266 271 281 284 297 290 290 285 286 291 269 245 167 268 292 304 307 307 305 301 297 291 289 284 277 273 269 262 258 258 251 255 254 243 236 224 217 211
263 281 283 283 274 276 277 298 290 288 301 294 325 292 318 330 284 197 224 306 323 315 311 310 309 304 300 295 289 283 278 270 268 260 253 248 244 246 242 237 232 222 213 202
265 295 290 280 270 281 261 299 293 293 287 301 286 240 282 265 282 198 288 319 316 312 310 308 308 304 299 294 289 285 278 267 267 260 247 239 240 247 246 236 227 214 205 195
263 287 272 261 290 273 294 300 291 295 235 245 238 225 294 312 345 276 317 317 313 310 307 304 306 307 302 298 292 286 283 271 268 258 245 235 237 241 237 232 221 210 194 188
307 291 255 235 266 126 179 306 303 270 240 279 189 281 263 298 237 299 311 313 315 314 309 307 308 309 307 304 299 292 283 275 268 255 244 232 230 235 243 225 215 209 194 175
286 310 223 185 246 299 320 233 273 291 293 301 295 256 288 190 167 323 323 324 324 320 322 320 320 317 311 307 301 293 287 277 266 253 246 233 229 231 234 222 213 215 180 175
263 258 260 246 271 280 142 239 283 273 263 270 246 278 282 227 251 333 331 330 331 329 329 324 322 319 314 310 302 298 293 283 265 251 247 236 228 225 228 212 211 208 174 171
275 261 284 295 307 223 241 333 267 233 286 297 292 301 274 289 321 333 327 330 328 326 326 326 326 322 317 314 309 306 302 293 271 255 245 235 228 223 218 197 197 180 164 165
265 232 277 275 228 296 238 246 233 270 263 304 314 302 275 311 334 323 327 331 332 332 327 327 324 324 319 318 320 325 321 303 288 256 239 231 229 220 192 179 177 175 165 166
218 279 253 264 335 289 257 246 224 268 309 291 292 280 359 92 323 317 328 335 337 338 333 328 324 326 329 331 333 338 325 315 302 290 232 216 219 200 166 165 169 164 163 160
224 224 278 249 163 161 222 189 243 284 276 273 280 273 162 296 320 336 340 342 340 343 340 334 333 338 335 337 340 338 332 331 330 348 101 146 148 149 146 157 159 160 163 164
267 217 240 261 291 299 278 265 242 253 271 287 258 277 304 318 330 338 348 344 345 346 343 341 340 346 339 342 343 343 345 352 1 21 67 78 94 117 127 139 142 158 169 170
255 257 253 264 272 280 262 269 263 243 248 256 282 292 295 308 330 325 341 346 352 353 354 349 343 348 345 346 347 350 358 6 6 11 59 60 78 96 102 109 116 129 149 161
270 275 298 284 276 256 264 271 260 247 260 253 263 278 275 309 305 330 358 343 346 346 354 347 340 345 351 346 349 354 3 8 2 20 47 56 67 76 69 88 95 106 102 118
250 264 269 282 60 278 273 263 206 205 198 244 267 320 334 318 332 334 340 340 342 343 353 355 341 339 346 346 352 356 359 11 15 28 38 47 58 69 64 75 83 82 87 99
243 225 234 276 295 270 288 114 273 250 273 240 275 294 305 301 294 306 345 327 336 342 354 355 338 338 349 346 356 3 9 17 14 29 36 37 51 58 63 65 69 74 74 75
228 222 235 256 225 305 299 154 175 215 171 236 279 318 317 293 263 175 347 332 316 327 341 2 340 341 347 358 2 9 15 18 17 27 25 25 48 60 62 62 63 69 75 71
3 200 222 163 250 272 328 350 161 198 197 227 251 302 305 267 340 359 40 343 336 338 350 352 19 357 3 6 11 20 15 18 22 19 20 29 47 55 60 58 62 68 70 73
340 42 236 205 239 279 270 290 157 282 352 274 249 277 224 263 22 91 37 319 313 323 346 1 9 33 14 9 19 32 21 20 11 20 30 43 51 56 61 66 69 70 72 77
299 315 214 216 236 291 142 131 285 9 277 265 248 256 249 211 156 165 200 291 324 358 4 12 16 15 20 24 28 31 26 12 27 35 47 52 56 54 57 63 68 71 71 68
303 274 308 222 248 281 232 256 256 265 287 281 253 234 219 191 194 176 178 200 6 22 23 18 25 25 23 33 33 29 18 26 36 45 44 48 55 54 53 51 51 52 52 59
251 197 262 284 218 251 259 259 252 218 255 288 259 268 198 200 183 182 170 172 154 61 25 14 24 29 30 28 31 39 29 32 41 45 42 43 48 46 49 49 53 55 54 55
279 295 257 266 277 319 292 265 295 267 254 275 266 248 228 199 191 185 182 175 164 121 76 30 29 24 16 18 25 31 35 42 51 50 43 41 40 42 40 51 52 55 55 55
237 248 232 278 349 308 288 307 331 290 294 283 251 236 232 213 202 187 185 177 169 165 154 110 73 65 34 26 26 29 38 42 45 43 38 38 37 36 36 37 50 55 65 59